THORAD DELTA 1 DEB

Satellite information

Favourite Embed

Satellite Type and Status

DEBRISIN ORBIT

Key statistics

Satellite THORAD DELTA 1 DEB at a glance.

Uptime

18498

Days in orbit

Revolutions

≈ 12.7

Per day

Orbit

SSO

Sun Synchronous Orbit

Inclination

101.3

Latest

Satellite identification and parameters

Extended collection of information and parameters for THORAD DELTA 1 DEB.

Object identification

Identified? True

Debris? True

Object name: THORAD DELTA 1 DEB

International designator: 1974-089DB

Object number (NORAD): 8564

Object ID (CCSDS): 8564

Country: UNITED STATES OF AMERICA (US)

Current information (Y/N): Y

RCS size: SMALL

Orbital parameters

Period: 113.488 minutes

Inclination: 101.2504 deg

SMA: 7764.719 km

Apoapsis: 1426.778 km

Periapsis: 1346.39 km

RAAN: 90.0811 deg

Eccentricy: 0.0051765

Argument of periapsis: 356.6744 deg

Mean anomaly: 32.513 deg

Mean motion: 12.68861344 rev/day

Mean motion (dot): 0.00000472 rev/day2

B* drag term: 0.0026262 1/REarth

Two-line elements (TLE)

Creation date: July 7, 2025, 5:18 a.m.

Reference frame: TEME

Reference center: EARTH

Epoch: July 6, 2025, 3:57 p.m. UTC

TLE line 0: 0 THORAD DELTA 1 DEB

TLE line 1: 1 08564U 74089DB 25187.66526775 .00000472 00000-0 26262-2 0 9991

TLE line 2: 2 08564 101.2504 90.0811 0051765 356.6744 32.5130 12.68861344329917

Live tracking on map

Real-time ground track for satellite THORAD DELTA 1 DEB.

In-orbit conjunctions

A list of the most updated potential collisions computed for object THORAD DELTA 1 DEB.

Target Orbit TCA Probability of collision Miss distance Type
COSMOS 1642 LEO 2025-06-22 00:33:16 0.0008348655 66.0 (m) PAYLOAD
DELTA 1 DEB SSO 2025-06-13 13:12:00 0.0001367731 104.0 (m) DEBRIS
COSMOS 2115 LEO 2024-12-24 13:46:46 0.0001835077 386.0 (m) PAYLOAD
COSMOS 2145 LEO 2024-12-11 19:18:10 0.00294802 16.0 (m) PAYLOAD
COSMOS 445 LEO 2024-11-05 11:35:31 0.0001910237 897.0 (m) PAYLOAD

Associated space launch

Meteorological satellite using radiometric imaging

THORAD DELTA 1 DEB was lifted into orbit during the mission ‘Delta 2310 | NOAA 4’, on board a Delta 2310 space rocket.

The launch took place on Nov. 15, 1974, 5:11 p.m. from Space Launch Complex 2W.

For more information about the launch, click the button.

Launch to space Delta 2310 | NOAA 4
Delta 2310 | NOAA 4

Agency: N/A

Status: Launch Successful

Launch date: Nov. 15, 1974, 5:11 p.m. UTC

Rocket: Delta 2310

Launch pad: Space Launch Complex 2W

Location: Vandenberg SFB, CA, USA

...

Latest news about this satellite

There are no fresh news available about this satellite. Check back as we update our databases every day.


Newsletter sign-up

Weekly statistics, charts and insights to help you stay on top of the space industry.